N542SA KBZN-KSBP

Flight info

Callsign N542SA
Flight time 2h 11m
Altitude 40000
Route LKT J7 FMG
Aircraft LJ35/L-L/S

Departure

Time 2026-04-25 14:57
Airport Bozeman Yellowstone International Airport (KBZN)

Arrival

Time 2026-04-25 17:08
Airport San Luis County Regional Airport (KSBP)
Time Latitude Longitude Altitude Speed Heading
2026-04-25 14:50 45.77300 -111.15233 4456 ft 0 kts 255°
2026-04-25 14:54 45.77301 -111.15233 4456 ft 1 kts 255°
2026-04-25 14:55 45.77295 -111.15210 4456 ft 0 kts 352°
2026-04-25 14:55 45.77320 -111.15212 4455 ft 5 kts 13°
2026-04-25 14:55 45.77344 -111.15169 4455 ft 10 kts 40°
2026-04-25 14:56 45.77377 -111.15063 4453 ft 17 kts 135°
2026-04-25 14:56 45.77284 -111.14939 4455 ft 19 kts 139°
2026-04-25 14:56 45.77195 -111.14814 4456 ft 13 kts 196°
2026-04-25 14:56 45.77156 -111.14861 4456 ft 33 kts 225°
2026-04-25 14:57 45.76673 -111.15573 4511 ft 157 kts 225°
2026-04-25 14:57 45.75887 -111.17059 5446 ft 219 kts 245°
2026-04-25 14:57 45.75615 -111.19464 6821 ft 256 kts 267°
2026-04-25 14:57 45.75510 -111.21935 9171 ft 249 kts 262°
2026-04-25 14:58 45.75213 -111.24425 11183 ft 257 kts 257°
2026-04-25 14:58 45.74751 -111.26919 13086 ft 259 kts 254°
2026-04-25 14:58 45.74209 -111.29404 14906 ft 264 kts 253°
2026-04-25 14:58 45.73629 -111.31902 16567 ft 269 kts 252°
2026-04-25 14:59 45.73013 -111.34475 18117 ft 276 kts 252°
2026-04-25 14:59 45.72374 -111.37103 19561 ft 282 kts 252°
2026-04-25 14:59 45.71726 -111.39757 20873 ft 288 kts 252°
2026-04-25 14:59 45.71055 -111.42500 22109 ft 295 kts 252°
2026-04-25 15:00 45.70369 -111.45307 23288 ft 301 kts 252°
2026-04-25 15:00 45.69668 -111.48169 24381 ft 308 kts 252°
2026-04-25 15:00 45.68950 -111.51098 25422 ft 314 kts 252°
2026-04-25 15:00 45.68218 -111.54075 26419 ft 319 kts 252°
2026-04-25 15:01 45.67485 -111.57056 27331 ft 324 kts 252°
2026-04-25 15:01 45.66733 -111.60109 28233 ft 328 kts 252°
2026-04-25 15:01 45.65967 -111.63216 29039 ft 334 kts 252°
2026-04-25 15:01 45.65185 -111.66383 29844 ft 338 kts 252°
2026-04-25 15:02 45.64397 -111.69574 30593 ft 343 kts 252°
2026-04-25 15:02 45.63592 -111.72817 31247 ft 349 kts 252°
2026-04-25 15:02 45.62784 -111.76079 31886 ft 354 kts 252°
2026-04-25 15:02 45.61952 -111.79430 32485 ft 359 kts 252°
2026-04-25 15:03 45.61111 -111.82815 33040 ft 364 kts 252°
2026-04-25 15:03 45.60257 -111.86244 33574 ft 369 kts 252°
2026-04-25 15:03 45.59392 -111.89720 34103 ft 373 kts 252°
2026-04-25 15:03 45.58515 -111.93231 34586 ft 378 kts 252°
2026-04-25 15:04 45.57638 -111.96744 35008 ft 382 kts 252°
2026-04-25 15:04 45.56735 -112.00350 35463 ft 386 kts 252°
2026-04-25 15:04 45.55820 -112.03993 35888 ft 390 kts 252°
2026-04-25 15:04 45.54900 -112.07655 36294 ft 394 kts 252°
2026-04-25 15:05 45.53975 -112.11326 36638 ft 399 kts 252°
2026-04-25 15:05 45.53030 -112.15071 37044 ft 402 kts 251°
2026-04-25 15:05 45.52081 -112.18826 37472 ft 403 kts 251°
2026-04-25 15:06 45.50163 -112.26396 38202 ft 407 kts 251°
2026-04-25 15:06 45.49206 -112.30167 38468 ft 411 kts 251°
2026-04-25 15:06 45.48230 -112.34009 38757 ft 414 kts 251°
2026-04-25 15:06 45.47242 -112.37889 39023 ft 417 kts 251°
2026-04-25 15:07 45.46248 -112.41786 39239 ft 421 kts 251°
2026-04-25 15:07 45.45247 -112.45703 39344 ft 426 kts 251°
2026-04-25 15:07 45.44228 -112.49684 39567 ft 429 kts 251°
2026-04-25 15:07 45.43198 -112.53704 39775 ft 431 kts 251°
2026-04-25 15:08 45.42165 -112.57725 39949 ft 434 kts 251°
2026-04-25 15:08 45.40071 -112.65851 39999 ft 442 kts 251°
2026-04-25 15:09 45.37933 -112.74119 40002 ft 445 kts 251°
2026-04-25 15:09 45.34718 -112.86502 39999 ft 446 kts 250°
2026-04-25 15:10 45.32557 -112.94788 40004 ft 446 kts 250°
2026-04-25 15:11 45.29318 -113.07149 40010 ft 446 kts 250°
2026-04-25 15:11 45.27152 -113.15382 40009 ft 446 kts 250°
2026-04-25 15:12 45.24246 -113.26384 40011 ft 446 kts 250°
2026-04-25 15:12 45.22424 -113.33255 40014 ft 447 kts 250°
2026-04-25 15:13 45.18765 -113.46991 40016 ft 447 kts 250°
2026-04-25 15:14 45.16568 -113.55202 40018 ft 447 kts 250°
2026-04-25 15:14 45.14356 -113.63441 40031 ft 447 kts 250°
2026-04-25 15:15 45.12134 -113.71686 40032 ft 447 kts 250°
2026-04-25 15:15 45.09924 -113.79861 40028 ft 446 kts 250°
2026-04-25 15:16 45.07693 -113.88085 40031 ft 446 kts 250°
2026-04-25 15:16 45.04356 -114.00332 40027 ft 446 kts 250°
2026-04-25 15:17 45.01683 -114.08268 40018 ft 448 kts 239°
2026-04-25 15:17 44.99825 -114.11825 40018 ft 450 kts 231°
2026-04-25 15:18 44.95497 -114.18175 40014 ft 450 kts 229°
2026-04-25 15:18 44.89060 -114.27829 40004 ft 450 kts 229°
2026-04-25 15:19 44.85483 -114.33154 39991 ft 450 kts 229°
2026-04-25 15:19 44.80449 -114.40605 39986 ft 449 kts 228°
2026-04-25 15:20 44.76147 -114.46942 39975 ft 449 kts 228°
2026-04-25 15:20 44.71821 -114.53299 39966 ft 449 kts 228°
2026-04-25 15:21 44.67513 -114.59613 39975 ft 448 kts 228°
2026-04-25 15:21 44.63182 -114.65950 39960 ft 448 kts 228°
2026-04-25 15:22 44.58848 -114.72273 39966 ft 448 kts 228°
2026-04-25 15:22 44.54539 -114.78547 39959 ft 448 kts 228°
2026-04-25 15:23 44.50208 -114.84836 39960 ft 448 kts 228°
2026-04-25 15:23 44.45871 -114.91121 39953 ft 448 kts 228°
2026-04-25 15:24 44.41554 -114.97367 39951 ft 448 kts 228°
2026-04-25 15:24 44.37948 -115.02570 39951 ft 448 kts 228°
2026-04-25 15:25 44.32874 -115.09874 39945 ft 447 kts 228°
2026-04-25 15:25 44.28542 -115.16098 39941 ft 447 kts 228°
2026-04-25 15:26 44.24195 -115.22327 39944 ft 447 kts 228°
2026-04-25 15:26 44.19860 -115.28525 39940 ft 447 kts 228°
2026-04-25 15:27 44.15514 -115.34726 39942 ft 446 kts 228°
2026-04-25 15:28 44.09013 -115.43970 39949 ft 446 kts 228°
2026-04-25 15:28 44.04663 -115.50139 39954 ft 446 kts 228°
2026-04-25 15:29 44.00334 -115.56265 39954 ft 445 kts 228°
2026-04-25 15:29 43.95988 -115.62403 39953 ft 444 kts 228°
2026-04-25 15:30 43.91651 -115.68513 39954 ft 443 kts 228°
2026-04-25 15:30 43.87345 -115.74567 39957 ft 443 kts 228°
2026-04-25 15:31 43.83009 -115.80650 39961 ft 443 kts 227°
2026-04-25 15:31 43.78687 -115.86701 39960 ft 444 kts 227°
2026-04-25 15:32 43.74336 -115.92780 39964 ft 443 kts 227°
2026-04-25 15:32 43.69987 -115.98839 39962 ft 443 kts 227°
2026-04-25 15:33 43.63484 -116.07877 39963 ft 443 kts 227°
2026-04-25 15:33 43.59122 -116.13922 39962 ft 443 kts 227°
2026-04-25 15:34 43.54924 -116.20078 39961 ft 442 kts 231°
2026-04-25 15:34 43.51700 -116.25529 39958 ft 440 kts 234°
2026-04-25 15:35 43.45506 -116.36669 39963 ft 439 kts 234°
2026-04-25 15:36 43.39919 -116.46638 39968 ft 438 kts 234°
2026-04-25 15:36 43.36200 -116.53239 39972 ft 438 kts 234°
2026-04-25 15:37 43.32464 -116.59857 39977 ft 438 kts 234°
2026-04-25 15:37 43.28722 -116.66464 39981 ft 437 kts 234°
2026-04-25 15:38 43.25003 -116.73016 39978 ft 437 kts 234°
2026-04-25 15:38 43.21258 -116.79597 39976 ft 436 kts 234°
2026-04-25 15:39 43.17523 -116.86145 39980 ft 436 kts 234°
2026-04-25 15:39 43.13803 -116.92657 39980 ft 436 kts 234°
2026-04-25 15:40 43.11299 -116.97033 39974 ft 436 kts 234°
2026-04-25 15:40 43.06301 -117.05744 39964 ft 436 kts 234°
2026-04-25 15:41 43.02580 -117.12213 39959 ft 435 kts 234°
2026-04-25 15:41 42.98818 -117.18738 39947 ft 435 kts 234°
2026-04-25 15:42 42.95084 -117.25201 39942 ft 435 kts 234°
2026-04-25 15:42 42.91326 -117.31689 39936 ft 434 kts 234°
2026-04-25 15:43 42.87591 -117.38125 39935 ft 434 kts 234°
2026-04-25 15:43 42.83857 -117.44548 39931 ft 434 kts 234°
2026-04-25 15:44 42.80093 -117.51007 39925 ft 433 kts 234°
2026-04-25 15:44 42.76352 -117.57410 39923 ft 432 kts 234°
2026-04-25 15:45 42.72599 -117.63820 39919 ft 432 kts 234°
2026-04-25 15:45 42.70117 -117.68051 39916 ft 431 kts 234°
2026-04-25 15:46 42.65131 -117.76534 39915 ft 430 kts 234°
2026-04-25 15:46 42.61364 -117.82871 39912 ft 431 kts 232°
2026-04-25 15:47 42.56760 -117.88080 39912 ft 439 kts 215°
2026-04-25 15:47 42.51136 -117.91538 39915 ft 443 kts 208°
2026-04-25 15:48 42.45538 -117.95023 39915 ft 442 kts 210°
2026-04-25 15:48 42.39978 -117.98493 39916 ft 442 kts 209°
2026-04-25 15:49 42.34374 -118.01946 39917 ft 442 kts 209°
2026-04-25 15:49 42.28796 -118.05353 39916 ft 442 kts 209°
2026-04-25 15:50 42.23170 -118.08776 39920 ft 441 kts 209°
2026-04-25 15:50 42.17585 -118.12165 39918 ft 441 kts 209°
2026-04-25 15:51 42.13863 -118.14424 39916 ft 441 kts 209°
2026-04-25 15:51 42.06400 -118.18939 39915 ft 441 kts 209°
2026-04-25 15:52 42.00790 -118.22323 39906 ft 441 kts 209°
2026-04-25 15:52 41.95220 -118.25681 39916 ft 441 kts 209°
2026-04-25 15:53 41.89608 -118.29051 39916 ft 440 kts 209°
2026-04-25 15:53 41.84032 -118.32402 39912 ft 440 kts 209°
2026-04-25 15:54 41.78424 -118.35762 39916 ft 440 kts 209°
2026-04-25 15:54 41.72835 -118.39100 39918 ft 440 kts 209°
2026-04-25 15:55 41.67267 -118.42420 39921 ft 440 kts 209°
2026-04-25 15:55 41.61659 -118.45763 39918 ft 440 kts 209°
2026-04-25 15:56 41.56104 -118.49060 39914 ft 438 kts 209°
2026-04-25 15:56 41.50523 -118.52375 39913 ft 439 kts 209°
2026-04-25 15:57 41.44935 -118.55681 39913 ft 438 kts 209°
2026-04-25 15:57 41.39389 -118.58958 39913 ft 438 kts 209°
2026-04-25 15:58 41.33801 -118.62256 39914 ft 438 kts 209°
2026-04-25 15:58 41.28260 -118.65519 39914 ft 437 kts 209°
2026-04-25 15:59 41.22691 -118.68795 39914 ft 436 kts 209°
2026-04-25 15:59 41.17129 -118.72055 39914 ft 436 kts 209°
2026-04-25 16:00 41.13445 -118.74212 39914 ft 435 kts 209°
2026-04-25 16:00 41.06956 -118.78007 39914 ft 435 kts 209°
2026-04-25 16:01 41.01457 -118.81212 39914 ft 431 kts 209°
2026-04-25 16:01 40.95983 -118.84398 39913 ft 427 kts 209°
2026-04-25 16:02 40.90581 -118.87539 39913 ft 426 kts 209°
2026-04-25 16:02 40.85133 -118.90703 39914 ft 426 kts 209°
2026-04-25 16:03 40.79733 -118.93832 39916 ft 426 kts 209°
2026-04-25 16:03 40.74298 -118.96977 39916 ft 425 kts 209°
2026-04-25 16:04 40.68872 -119.00108 39913 ft 425 kts 209°
2026-04-25 16:04 40.63484 -119.03214 39915 ft 424 kts 209°
2026-04-25 16:05 40.58067 -119.06329 39919 ft 424 kts 209°
2026-04-25 16:06 40.49977 -119.10971 39915 ft 423 kts 209°
2026-04-25 16:06 40.44599 -119.14051 39914 ft 423 kts 209°
2026-04-25 16:07 40.39193 -119.17142 39906 ft 423 kts 209°
2026-04-25 16:07 40.33795 -119.20222 39904 ft 422 kts 209°
2026-04-25 16:08 40.28431 -119.23278 39906 ft 422 kts 209°
2026-04-25 16:08 40.23033 -119.26348 39908 ft 422 kts 209°
2026-04-25 16:09 40.17639 -119.29410 39915 ft 422 kts 208°
2026-04-25 16:09 40.12274 -119.32449 39919 ft 421 kts 208°
2026-04-25 16:10 40.06886 -119.35497 39915 ft 421 kts 208°
2026-04-25 16:10 40.01530 -119.38520 39913 ft 421 kts 208°
2026-04-25 16:11 39.96158 -119.41547 39912 ft 419 kts 209°
2026-04-25 16:11 39.90804 -119.44561 39918 ft 418 kts 209°
2026-04-25 16:12 39.85487 -119.47549 39917 ft 418 kts 208°
2026-04-25 16:12 39.80126 -119.50557 39926 ft 418 kts 208°
2026-04-25 16:13 39.74769 -119.53557 39933 ft 418 kts 208°
2026-04-25 16:13 39.69455 -119.56527 39924 ft 418 kts 208°
2026-04-25 16:14 39.64112 -119.59508 39923 ft 417 kts 208°
2026-04-25 16:14 39.58772 -119.62484 39928 ft 417 kts 208°
2026-04-25 16:15 39.53374 -119.65220 39925 ft 421 kts 203°
2026-04-25 16:15 39.47616 -119.66970 39926 ft 427 kts 197°
2026-04-25 16:16 39.41791 -119.68366 39927 ft 426 kts 197°
2026-04-25 16:16 39.35987 -119.69777 39930 ft 426 kts 197°
2026-04-25 16:17 39.30146 -119.71197 39926 ft 426 kts 197°
2026-04-25 16:17 39.24341 -119.72602 39936 ft 425 kts 197°
2026-04-25 16:18 39.18517 -119.74010 39938 ft 425 kts 197°
2026-04-25 16:18 39.12691 -119.75415 39932 ft 424 kts 197°
2026-04-25 16:19 39.06914 -119.76804 39926 ft 424 kts 197°
2026-04-25 16:19 39.01103 -119.78200 39916 ft 424 kts 197°
2026-04-25 16:20 38.92433 -119.80278 39913 ft 423 kts 197°
2026-04-25 16:21 38.83753 -119.82356 39917 ft 423 kts 197°
2026-04-25 16:21 38.77994 -119.83731 39924 ft 422 kts 197°
2026-04-25 16:22 38.72203 -119.85112 39918 ft 422 kts 197°
2026-04-25 16:22 38.66428 -119.86486 39924 ft 421 kts 197°
2026-04-25 16:23 38.60692 -119.87849 39926 ft 421 kts 197°
2026-04-25 16:23 38.54921 -119.89217 39929 ft 421 kts 197°
2026-04-25 16:24 38.49196 -119.90572 39927 ft 421 kts 197°
2026-04-25 16:24 38.43431 -119.91935 39930 ft 420 kts 197°
2026-04-25 16:25 38.37714 -119.93284 39931 ft 419 kts 197°
2026-04-25 16:25 38.31976 -119.94636 39921 ft 419 kts 197°
2026-04-25 16:26 38.26223 -119.95990 39925 ft 419 kts 197°
2026-04-25 16:26 38.20525 -119.97329 39929 ft 418 kts 197°
2026-04-25 16:27 38.14821 -119.98667 39927 ft 418 kts 197°
2026-04-25 16:27 38.09093 -120.00008 39929 ft 417 kts 197°
2026-04-25 16:28 38.03360 -120.01347 39924 ft 417 kts 197°
2026-04-25 16:28 37.97672 -120.02675 39925 ft 417 kts 197°
2026-04-25 16:29 37.91978 -120.04003 39924 ft 417 kts 197°
2026-04-25 16:29 37.86244 -120.05336 39939 ft 418 kts 197°
2026-04-25 16:30 37.80519 -120.06666 39942 ft 418 kts 197°
2026-04-25 16:30 37.74833 -120.07985 39935 ft 418 kts 197°
2026-04-25 16:31 37.69098 -120.09313 39933 ft 418 kts 197°
2026-04-25 16:31 37.63412 -120.10628 39935 ft 418 kts 197°
2026-04-25 16:32 37.57700 -120.11945 39934 ft 417 kts 197°
2026-04-25 16:32 37.51977 -120.13265 39943 ft 417 kts 197°
2026-04-25 16:33 37.46297 -120.14573 39943 ft 417 kts 197°
2026-04-25 16:33 37.40589 -120.15882 39909 ft 406 kts 197°
2026-04-25 16:33 37.37866 -120.16491 39584 ft 390 kts 197°
2026-04-25 16:34 37.35237 -120.17084 39257 ft 378 kts 198°
2026-04-25 16:34 37.32663 -120.17675 38928 ft 383 kts 198°
2026-04-25 16:34 37.30002 -120.18298 38604 ft 391 kts 198°
2026-04-25 16:34 37.27305 -120.18926 38285 ft 397 kts 197°
2026-04-25 16:35 37.24567 -120.19559 37964 ft 401 kts 197°
2026-04-25 16:35 37.21837 -120.20186 37655 ft 404 kts 197°
2026-04-25 16:35 37.19056 -120.20821 37337 ft 405 kts 197°
2026-04-25 16:35 37.16271 -120.21458 37019 ft 406 kts 197°
2026-04-25 16:36 37.13486 -120.22092 36701 ft 407 kts 197°
2026-04-25 16:36 37.12577 -120.22298 36598 ft 407 kts 197°
2026-04-25 16:36 37.07930 -120.23352 36067 ft 408 kts 196°
2026-04-25 16:36 37.05128 -120.23989 35745 ft 409 kts 196°
2026-04-25 16:37 37.02321 -120.24626 35421 ft 409 kts 196°
2026-04-25 16:37 36.99509 -120.25266 35097 ft 410 kts 196°
2026-04-25 16:37 36.96693 -120.25904 34774 ft 411 kts 196°
2026-04-25 16:37 36.93911 -120.26535 34454 ft 411 kts 196°
2026-04-25 16:38 36.91086 -120.27175 34130 ft 412 kts 195°
2026-04-25 16:38 36.88261 -120.27814 33805 ft 412 kts 195°
2026-04-25 16:38 36.85435 -120.28453 33481 ft 412 kts 195°
2026-04-25 16:38 36.82621 -120.29089 33170 ft 412 kts 195°
2026-04-25 16:39 36.79794 -120.29728 32833 ft 412 kts 195°
2026-04-25 16:39 36.76968 -120.30367 32509 ft 413 kts 195°
2026-04-25 16:39 36.74164 -120.30999 32186 ft 413 kts 195°
2026-04-25 16:39 36.71317 -120.31640 31864 ft 414 kts 195°
2026-04-25 16:40 36.68479 -120.32280 31537 ft 415 kts 195°
2026-04-25 16:40 36.65671 -120.32913 31216 ft 415 kts 195°
2026-04-25 16:40 36.62823 -120.33553 30889 ft 415 kts 195°
2026-04-25 16:40 36.59977 -120.34192 30565 ft 416 kts 195°
2026-04-25 16:41 36.57109 -120.34836 30236 ft 416 kts 194°
2026-04-25 16:41 36.56187 -120.35043 30131 ft 416 kts 194°
2026-04-25 16:41 36.48557 -120.36751 29261 ft 417 kts 194°
2026-04-25 16:42 36.45738 -120.37382 28939 ft 416 kts 194°
2026-04-25 16:42 36.42922 -120.38007 28386 ft 399 kts 194°
2026-04-25 16:42 36.40248 -120.38596 27686 ft 382 kts 195°
2026-04-25 16:42 36.37642 -120.39174 26949 ft 382 kts 195°
2026-04-25 16:43 36.35085 -120.39745 26324 ft 367 kts 195°
2026-04-25 16:43 36.32628 -120.40295 25701 ft 359 kts 195°
2026-04-25 16:43 36.30193 -120.40838 25071 ft 352 kts 194°
2026-04-25 16:43 36.27783 -120.41373 24453 ft 347 kts 195°
2026-04-25 16:44 36.25419 -120.41902 23823 ft 342 kts 195°
2026-04-25 16:44 36.22988 -120.42458 23197 ft 381 kts 195°
2026-04-25 16:44 36.20233 -120.43102 22593 ft 430 kts 194°
2026-04-25 16:44 36.17169 -120.43803 21992 ft 462 kts 194°
2026-04-25 16:45 36.14131 -120.44467 21400 ft 423 kts 193°
2026-04-25 16:45 36.11331 -120.45065 20791 ft 396 kts 194°
2026-04-25 16:45 36.08680 -120.45637 20162 ft 377 kts 194°
2026-04-25 16:45 36.06133 -120.46184 19544 ft 365 kts 194°
2026-04-25 16:46 36.03689 -120.46723 18914 ft 356 kts 194°
2026-04-25 16:46 36.01270 -120.47257 18287 ft 349 kts 194°
2026-04-25 16:46 35.98894 -120.47787 17670 ft 344 kts 194°
2026-04-25 16:46 35.98129 -120.47960 17470 ft 342 kts 194°
2026-04-25 16:47 35.94264 -120.48817 16423 ft 337 kts 194°
2026-04-25 16:47 35.91956 -120.49328 15800 ft 336 kts 194°
2026-04-25 16:47 35.89657 -120.49837 15164 ft 334 kts 193°
2026-04-25 16:47 35.87367 -120.50345 14544 ft 334 kts 193°
2026-04-25 16:48 35.85845 -120.50682 14127 ft 334 kts 193°
2026-04-25 16:48 35.83554 -120.51185 13505 ft 334 kts 193°
2026-04-25 16:48 35.81243 -120.51694 12874 ft 340 kts 193°
2026-04-25 16:48 35.78126 -120.52385 12088 ft 346 kts 192°
2026-04-25 16:49 35.76541 -120.52734 12038 ft 338 kts 192°
2026-04-25 16:49 35.74290 -120.53226 12025 ft 327 kts 192°
2026-04-25 16:49 35.72070 -120.53711 12016 ft 320 kts 192°
2026-04-25 16:49 35.69171 -120.54348 12008 ft 319 kts 192°
2026-04-25 16:50 35.67719 -120.54666 12006 ft 318 kts 192°
2026-04-25 16:50 35.65532 -120.55146 12007 ft 318 kts 192°
2026-04-25 16:50 35.62626 -120.55783 12008 ft 318 kts 192°
2026-04-25 16:50 35.61182 -120.56099 12014 ft 318 kts 192°
2026-04-25 16:51 35.58981 -120.56582 12012 ft 325 kts 192°
2026-04-25 16:51 35.56716 -120.57079 12014 ft 333 kts 192°
2026-04-25 16:51 35.54406 -120.57586 12019 ft 338 kts 192°
2026-04-25 16:51 35.52868 -120.57922 12018 ft 341 kts 192°
2026-04-25 16:52 35.49740 -120.58604 12014 ft 345 kts 192°
2026-04-25 16:52 35.47367 -120.59122 12013 ft 347 kts 192°
2026-04-25 16:52 35.45002 -120.59637 12015 ft 348 kts 192°
2026-04-25 16:52 35.42588 -120.60164 12012 ft 349 kts 192°
2026-04-25 16:53 35.37807 -120.61202 12002 ft 350 kts 192°
2026-04-25 16:53 35.35427 -120.61719 11996 ft 349 kts 192°
2026-04-25 16:53 35.33064 -120.61915 11995 ft 330 kts 177°
2026-04-25 16:54 35.30913 -120.61477 11664 ft 286 kts 172°
2026-04-25 16:54 35.29132 -120.61070 10568 ft 240 kts 172°
2026-04-25 16:54 35.27584 -120.60721 9481 ft 220 kts 172°
2026-04-25 16:54 35.26092 -120.60470 8368 ft 220 kts 184°
2026-04-25 16:55 35.24589 -120.61104 7288 ft 241 kts 216°
2026-04-25 16:55 35.23507 -120.62710 6217 ft 253 kts 246°
2026-04-25 16:55 35.23216 -120.64820 5175 ft 261 kts 275°
2026-04-25 16:55 35.23820 -120.66916 4109 ft 266 kts 303°
2026-04-25 16:56 35.25038 -120.68616 3208 ft 263 kts 314°
2026-04-25 16:56 35.26313 -120.70133 2761 ft 245 kts 316°
2026-04-25 16:56 35.27511 -120.71491 2554 ft 226 kts 317°
2026-04-25 16:56 35.28675 -120.72785 2462 ft 225 kts 317°
2026-04-25 16:57 35.29827 -120.74056 2420 ft 221 kts 317°
2026-04-25 16:57 35.30583 -120.74888 2404 ft 219 kts 317°
2026-04-25 16:57 35.31958 -120.76661 2388 ft 214 kts 297°
2026-04-25 16:57 35.32621 -120.78290 2393 ft 212 kts 293°
2026-04-25 16:58 35.33169 -120.79903 2395 ft 203 kts 291°
2026-04-25 16:58 35.33669 -120.81485 2393 ft 195 kts 291°
2026-04-25 16:58 35.34255 -120.82961 2389 ft 190 kts 298°
2026-04-25 16:58 35.34940 -120.84316 2391 ft 182 kts 302°
2026-04-25 16:59 35.35650 -120.85572 2385 ft 178 kts 305°
2026-04-25 16:59 35.36191 -120.86910 2378 ft 175 kts 283°
2026-04-25 16:59 35.36275 -120.88393 2385 ft 177 kts 267°
2026-04-25 16:59 35.36193 -120.89908 2392 ft 178 kts 265°
2026-04-25 17:00 35.36085 -120.91422 2397 ft 178 kts 264°
2026-04-25 17:00 35.36010 -120.92924 2397 ft 179 kts 274°
2026-04-25 17:00 35.36529 -120.94263 2385 ft 175 kts 316°
2026-04-25 17:00 35.37622 -120.94775 2379 ft 169 kts
2026-04-25 17:01 35.38682 -120.94304 2377 ft 165 kts 39°
2026-04-25 17:01 35.39277 -120.93157 2379 ft 158 kts 77°
2026-04-25 17:01 35.39183 -120.91838 2381 ft 157 kts 114°
2026-04-25 17:01 35.38604 -120.90704 2394 ft 157 kts 124°
2026-04-25 17:02 35.38025 -120.89580 2400 ft 158 kts 122°
2026-04-25 17:02 35.37443 -120.88432 2404 ft 159 kts 123°
2026-04-25 17:02 35.36854 -120.87284 2406 ft 159 kts 123°
2026-04-25 17:02 35.36460 -120.86523 2405 ft 159 kts 124°
2026-04-25 17:03 35.35477 -120.85179 2387 ft 158 kts 141°
2026-04-25 17:03 35.34785 -120.84178 2378 ft 158 kts 122°
2026-04-25 17:03 35.34267 -120.82986 2393 ft 159 kts 116°
2026-04-25 17:03 35.33762 -120.81782 2395 ft 158 kts 121°
2026-04-25 17:04 35.33202 -120.80725 2394 ft 138 kts 126°
2026-04-25 17:04 35.32675 -120.79812 2376 ft 127 kts 126°
2026-04-25 17:04 35.32171 -120.78945 2358 ft 122 kts 126°
2026-04-25 17:04 35.31651 -120.78028 2370 ft 141 kts 126°
2026-04-25 17:05 35.31073 -120.77009 2395 ft 146 kts 125°
2026-04-25 17:05 35.29909 -120.74948 2407 ft 148 kts 126°
2026-04-25 17:05 35.29301 -120.73885 2070 ft 156 kts 126°
2026-04-25 17:06 35.28686 -120.72801 1786 ft 151 kts 125°
2026-04-25 17:06 35.28101 -120.71777 1577 ft 143 kts 126°
2026-04-25 17:06 35.27550 -120.70807 1383 ft 133 kts 126°
2026-04-25 17:06 35.27046 -120.69918 1205 ft 126 kts 125°
2026-04-25 17:07 35.26540 -120.69029 1036 ft 130 kts 123°
2026-04-25 17:07 35.26015 -120.68105 864 ft 132 kts 123°
2026-04-25 17:07 35.25482 -120.67198 683 ft 129 kts 125°
2026-04-25 17:07 35.24968 -120.66309 474 ft 129 kts 122°
2026-04-25 17:08 35.24484 -120.65435 305 ft 116 kts 123°
2026-04-25 17:08 35.24045 -120.64651 178 ft 101 kts 124°
2026-04-25 17:08 35.23880 -120.64359 179 ft 26 kts 125°
2026-04-25 17:08 35.23780 -120.64119 180 ft 19 kts 93°
2026-04-25 17:09 35.23776 -120.63990 178 ft 16 kts 103°
2026-04-25 17:09 35.23706 -120.63861 178 ft 21 kts 126°
2026-04-25 17:09 35.23610 -120.63677 178 ft 29 kts 90°
2026-04-25 17:09 35.23693 -120.63613 178 ft 2 kts 147°
2026-04-25 17:10 35.23692 -120.63613 178 ft 0 kts 160°